Change the Weather History Date:

Wednesday, October 24, 2012

  Actual Average (KSDA) Record (KSDA)
Temperature  
Mean Temperature 62 °F -  
Max Temperature 74 °F 64 °F 86 °F (1991)
Min Temperature 50 °F 41 °F 19 °F (1999)
Degree Days  
Heating Degree Days 4    
Growing Degree Days 12 (Base 50)    
Moisture  
Dew Point 58 °F    
Average Humidity 93    
Maximum Humidity 100    
Minimum Humidity 69    
Precipitation  
Precipitation 0.00 in - - ()
Sea Level Pressure  
Sea Level Pressure 29.73 in    
Wind  
Wind Speed 5 mph (NNW)    
Max Wind Speed 18 mph    
Max Gust Speed 25 mph    
Visibility 5 miles    
Events Fog , Rain    
Averages and records for this station are not official NWS values.
T = Trace of Precipitation, MM = Missing Value Source: NWS Daily Summary

Daily Weather History Graph

Daily Weather History Graph

Search for Another Location

Airport or City:

Trip Planner

Search our weather history database for the weather conditions in past years. The results will help you decide how hot, cold, wet, or windy it might be!

Date:

Astronomy

Oct. 24, 2012 Rise Set
Actual Time 7:45 AM CDT 6:29 PM CDT
Civil Twilight 7:17 AM CDT 6:57 PM CDT
Nautical Twilight 6:45 AM CDT 7:29 PM CDT
Astronomical Twilight 6:13 AM CDT 8:01 PM CDT
Moon 3:47 PM CDT (10/24) 2:39 AM CDT (10/24)
Length of Visible Light 11h 40m
Length of Day
10h 44m
Waxing Gibbous, 76% of the Moon is Illuminated
Oct 24
Waxing Gibbous
Oct 29
Full
Nov 6
Last Quarter
Nov 13
New
Nov 20
First Quarter

Hourly Weather History & Observations

Time (CDT) Temp. Dew Point Humidity Pressure Visibility Wind Dir Wind Speed Gust Speed Precip Events Conditions
12:15 AM 59.0 °F 58.1 °F 97% 29.76 in 5.0 mi NNE 4.6 mph - N/A   Clear
12:35 AM 58.5 °F 57.6 °F 97% 29.77 in 5.0 mi North 5.8 mph - N/A   Clear
12:55 AM 58.3 °F 57.4 °F 97% 29.76 in 4.0 mi North 4.6 mph - N/A   Clear
1:15 AM 57.7 °F 57.2 °F 98% 29.77 in 4.0 mi Calm Calm - N/A   Clear
1:35 AM 57.7 °F 57.2 °F 98% 29.77 in 4.0 mi Calm Calm - N/A   Clear
1:55 AM 58.3 °F 58.1 °F 99% 29.77 in 4.0 mi Calm Calm - N/A   Clear
2:15 AM 58.3 °F 58.1 °F 99% 29.76 in 4.0 mi Calm Calm - N/A   Clear
2:35 AM 57.6 °F 57.4 °F 99% 29.76 in 3.0 mi Calm Calm - N/A   Clear
2:55 AM 57.6 °F 57.4 °F 99% 29.75 in 2.5 mi Calm Calm - N/A   Clear
3:15 AM 57.2 °F 57.2 °F 100% 29.75 in 0.5 mi Calm Calm - N/A Fog Fog
3:35 AM 57.6 °F 57.6 °F 100% 29.75 in 1.0 mi Calm Calm - N/A   Mist
3:55 AM 55.9 °F 55.9 °F 100% 29.75 in 0.5 mi Calm Calm - N/A Fog Fog
4:15 AM 55.8 °F 55.8 °F 100% 29.75 in 0.8 mi Calm Calm - N/A   Mist
4:35 AM 54.5 °F 54.5 °F 100% 29.75 in 0.2 mi Calm Calm - N/A Fog Fog
4:55 AM 55.4 °F 55.4 °F 100% 29.75 in 0.5 mi NNE 3.5 mph - N/A Fog Fog
5:15 AM 56.3 °F 56.3 °F 100% 29.75 in 1.5 mi Calm Calm - N/A   Overcast
5:35 AM 57.0 °F 57.0 °F 100% 29.75 in 2.0 mi Calm Calm - N/A   Overcast
5:55 AM 57.2 °F 57.2 °F 100% 29.75 in 2.0 mi Calm Calm - N/A   Overcast
6:15 AM 57.4 °F 57.4 °F 100% 29.75 in 2.0 mi Calm Calm - N/A   Overcast
6:35 AM 57.4 °F 57.4 °F 100% 29.75 in 2.0 mi Calm Calm - N/A   Overcast
6:55 AM 57.6 °F 57.6 °F 100% 29.74 in 0.5 mi Calm Calm - N/A Fog Fog
7:15 AM 57.6 °F 57.6 °F 100% 29.75 in 0.2 mi Calm Calm - N/A Fog Fog
7:35 AM 57.6 °F 57.6 °F 100% 29.75 in 0.2 mi Calm Calm - N/A Fog Fog
7:55 AM 58.3 °F 58.3 °F 100% 29.75 in 0.2 mi Calm Calm - N/A Fog Fog
8:15 AM 58.8 °F 58.8 °F 100% 29.74 in 0.2 mi Calm Calm - N/A Fog Fog
8:35 AM 61.7 °F 61.7 °F 100% 29.74 in 0.2 mi Calm Calm - N/A Fog Fog
8:55 AM 62.8 °F 62.8 °F 100% 29.74 in 0.2 mi Calm Calm - N/A Fog Fog
9:15 AM 63.9 °F 63.9 °F 100% 29.74 in 1.2 mi Calm Calm - N/A   Overcast
9:35 AM 64.8 °F 64.8 °F 100% 29.74 in 2.5 mi South 11.5 mph - N/A   Overcast
9:55 AM 65.8 °F 65.8 °F 100% 29.74 in 4.0 mi South 8.1 mph - N/A   Mostly Cloudy
10:15 AM 67.6 °F 67.6 °F 100% 29.74 in 10.0 mi South 17.3 mph - N/A   Overcast
10:35 AM 68.5 °F 68.0 °F 98% 29.74 in 10.0 mi SSW 12.7 mph - N/A   Overcast
10:55 AM 69.3 °F 67.6 °F 95% 29.74 in 10.0 mi SSW 15.0 mph - N/A   Overcast
11:15 AM 70.9 °F 68.0 °F 91% 29.74 in 10.0 mi SSW 15.0 mph 20.7 mph N/A   Overcast
11:35 AM 72.9 °F 66.2 °F 80% 29.74 in 10.0 mi WSW 18.4 mph 25.3 mph N/A   Mostly Cloudy
11:55 AM 73.4 °F 64.2 °F 73% 29.74 in 10.0 mi SW 16.1 mph 21.9 mph N/A   Mostly Cloudy
12:15 PM 73.2 °F 62.6 °F 69% 29.74 in 10.0 mi SW 12.7 mph 17.3 mph N/A   Overcast
12:35 PM 72.5 °F 63.5 °F 73% 29.74 in 10.0 mi WSW 6.9 mph - N/A   Overcast
12:55 PM 73.2 °F 64.0 °F 73% 29.73 in 10.0 mi WNW 9.2 mph - N/A   Mostly Cloudy
1:15 PM 70.0 °F 63.3 °F 79% 29.73 in 7.0 mi NW 6.9 mph - N/A   Mostly Cloudy
1:35 PM 68.5 °F 62.1 °F 80% 29.73 in 5.0 mi NW 9.2 mph - N/A   Haze
1:55 PM 70.0 °F 62.8 °F 78% 29.72 in 5.0 mi NW 9.2 mph - N/A   Haze
2:15 PM 69.4 °F 61.5 °F 76% 29.71 in 5.0 mi NW 8.1 mph - N/A   Haze
2:35 PM 70.7 °F 61.7 °F 73% 29.71 in 7.0 mi WNW 6.9 mph - N/A   Scattered Clouds
2:55 PM 69.8 °F 61.0 °F 73% 29.71 in 10.0 mi NW 8.1 mph - N/A   Overcast
3:15 PM 69.4 °F 61.0 °F 74% 29.70 in 10.0 mi NW 6.9 mph - N/A   Mostly Cloudy
3:35 PM 69.4 °F 60.8 °F 74% 29.69 in 10.0 mi NNW 9.2 mph - N/A   Mostly Cloudy
4:15 PM 66.7 °F 59.4 °F 77% 29.69 in 7.0 mi NNW 11.5 mph 16.1 mph N/A   Mostly Cloudy
4:35 PM 64.0 °F 58.6 °F 83% 29.70 in 4.0 mi North 10.4 mph - N/A   Haze
4:55 PM 63.0 °F 58.1 °F 84% 29.71 in 5.0 mi NNW 12.7 mph - N/A   Haze
5:15 PM 63.0 °F 57.7 °F 83% 29.71 in 7.0 mi North 10.4 mph - N/A   Mostly Cloudy
5:35 PM 62.2 °F 57.4 °F 84% 29.71 in 7.0 mi North 12.7 mph - N/A   Mostly Cloudy
5:55 PM 61.2 °F 57.0 °F 86% 29.72 in 7.0 mi NNW 11.5 mph - N/A   Overcast
6:15 PM 59.0 °F 56.3 °F 91% 29.72 in 7.0 mi North 10.4 mph - N/A   Mostly Cloudy
6:35 PM 57.9 °F 55.8 °F 92% 29.71 in 7.0 mi North 15.0 mph - N/A   Mostly Cloudy
6:55 PM 56.8 °F 55.4 °F 95% 29.71 in 7.0 mi North 10.4 mph - N/A   Overcast
7:15 PM 56.3 °F 54.7 °F 94% 29.71 in 7.0 mi North 11.5 mph - N/A   Overcast
7:35 PM 55.8 °F 54.5 °F 96% 29.71 in 7.0 mi North 11.5 mph - N/A   Overcast
7:55 PM 55.6 °F 54.5 °F 96% 29.71 in 5.0 mi North 9.2 mph - N/A   Overcast
8:15 PM 55.4 °F 54.5 °F 97% 29.72 in 4.0 mi North 12.7 mph - N/A   Overcast
8:35 PM 54.9 °F 53.8 °F 96% 29.72 in 3.0 mi NNW 10.4 mph - N/A   Overcast
8:55 PM 54.3 °F 53.4 °F 97% 29.72 in 3.0 mi North 9.2 mph - N/A   Overcast
9:15 PM 53.8 °F 53.1 °F 97% 29.72 in 3.0 mi North 13.8 mph - N/A   Overcast
9:35 PM 53.6 °F 52.7 °F 97% 29.72 in 3.0 mi North 12.7 mph - N/A   Overcast
9:55 PM 53.2 °F 52.7 °F 98% 29.72 in 3.0 mi North 15.0 mph - N/A   Overcast
10:15 PM 52.9 °F 52.2 °F 97% 29.73 in 4.0 mi North 11.5 mph 16.1 mph N/A   Overcast
10:35 PM 52.7 °F 52.0 °F 97% 29.74 in 4.0 mi North 12.7 mph - N/A   Overcast
10:55 PM 52.7 °F 51.8 °F 97% 29.74 in 4.0 mi North 12.7 mph 17.3 mph N/A Rain Rain
11:15 PM 52.2 °F 51.4 °F 97% 29.74 in 3.0 mi North 13.8 mph 17.3 mph N/A   Overcast
11:35 PM 50.7 °F 50.2 °F 98% 29.73 in 4.0 mi North 15.0 mph - N/A Rain Light Rain
11:55 PM 50.2 °F 49.8 °F 99% 29.72 in 3.0 mi North 11.5 mph - N/A   Overcast